Weather Roundup
Issued by NWS Corpus Christi, TX

Home | Current Version | Previous Version | Text Only | Print | Product List | Glossary On
Versions: 1 2 3 4 5 6 7 8 9 10 11 12 13 14 15 16 17 18 19 20 21 22 23 24 25 26 27 28 29 30 31 32 33 34 35 36 37 38 39 40 41 42 43 44 45 46 47 48 49 50
000
ASUS44 KCRP 260110
HRRCRP

SOUTH TEXAS REGIONAL WEATHER ROUNDUP
NATIONAL WEATHER SERVICE CORPUS CHRISTI TX
800 PM CDT SAT APR 25 2015


TXZ229>244-260200-
...CORPUS CHRISTI AREA OBSERVATIONS...

CITY           SKY/WX    TMP DP  RH WIND       PRES   REMARKS
CORPUS CHRISTI MOCLDY    76  71  85 E10       29.71R
NAS CORPUS CHR CLOUDY    75  72  90 E10       29.71S
ROCKPORT       PTCLDY    75  69  81 SE10      29.70F
KINGSVILLE NAS CLOUDY    77  75  93 SE8       29.71R
ALICE          PTCLDY    79  73  82 E9G23     29.70S
FALFURRIAS     PTCLDY    78  73  86 E7        29.70S
$$

...VICTORIA AREA OBSERVATIONS...

CITY           SKY/WX    TMP DP  RH WIND       PRES   REMARKS
VICTORIA       PTCLDY    77  73  87 SE12      29.71S
BEEVILLE       FAIR      77  75  92 SE8       29.71R
PLEASANTON     CLEAR     83  62  49 CALM      29.70S
SAN ANTONIO    PTCLDY    85  56  37 S7        29.71R
$$

...LAREDO AREA OBSERVATIONS...

CITY           SKY/WX    TMP DP  RH WIND       PRES   REMARKS
LAREDO         PTCLDY    87  64  46 SE6       29.70S
COTULLA        PTCLDY    85  64  49 SE6       29.69R
DEL RIO        CLEAR     83  55  38 SE8       29.69R
MCALLEN        CLEAR     87  76  69 E10       29.69R HX  97
HEBBRONVILLE   CLEAR     84  72  68 E8        29.71S
$$

...OTHER TEXAS OBSERVATIONS...

CITY           SKY/WX    TMP DP  RH WIND       PRES   REMARKS
BROWNSVILLE    MOCLDY    82  76  81 E6        29.69S HAZE
HOUSTON        PTCLDY    80  68  66 S6        29.70S
COL. STATION   CLEAR     81  68  64 S7        29.69R
AUSTIN         PTCLDY    74  64  71 S7        29.69R
WACO           CLEAR     77  66  68 CALM      29.67S
FORT WORTH     CLEAR     77  54  44 SW7       29.64R
WICHITA FALLS  CLEAR     74  50  42 S12       29.61R
LUBBOCK        PTCLDY    76  29  17 W14       29.71S
EL PASO        FAIR      77  13   9 W18G29    29.79S
$$

...MARINE OBSERVATIONS...

STATION/POSITION TIME  SKY/WX   TEMP    WIND        PRES    VSBY  WAVE   SWELL
                                AIR SEA DIR/SP/G                  HT/PER HT/PER
                 (UTC)          (F)     (DEG/KT/KT) (MB)    (MI)  (FT/S) (FT/S)
PORT ARANSAS     0100            74 75  100/ 12/ 13 1006.4F
BUOY 90 E PORT A 0050            76 76  130/ 12/ 12 1006.2S         4/ 4   2/ 6
BUOY 45 SE BAFFI 0050            75 74   90/ 12/ 14 1005.3R         3/ 5   2/ 6
BUOY 200 E PT IS 0050            81 80   90/  6/  8 1007.0S         3/ 6   2/ 6
BUOY 15 E GALVES 0050            73 74  170/ 10/ 10 1006.1R         3/ 5   2/ 5
$$



USA.gov is the U.S. government's official web portal to all federal, state and local government web resources and services.